Погода в Халикунасе

Греция     39°27′26″N   19°52′14″E
темп.,
°C
ветер,
м/с
пор.,
м/с
влажн.,
%
обл.,
%
осадки,
мм/ч
давл.,
гПа
погр.,
м
24 мая, вт
вт2400:00+20юв44816 0.0 101249
03:00+20юв34852 0.0 101178
06:00+20вюв45870 0.0 1011131
09:00+20юв56883 0.0 1012186
12:00+20ююв56870 0.0 1012223
15:00+20ююв56840 0.0 1012164
18:00+21ююв45780 0.0 1012114
21:00+21ююв34770 0.0 101243
25 мая, ср
ср2500:00+21юв44780 0.0 101454
03:00+21юв45770 0.0 101463
06:00+21юв44765 0.0 101452
09:00+21юв44745 0.0 101647
12:00+20ююв44740 0.0 101780
15:00+21ююз44720 0.0 101783
18:00+22юз33712 0.0 101748
21:00+22ю2270100 0.0 101712
26 мая, чт
чт2600:00+21вюв22696 0.0 101811
03:00+21вюв2266100 0.0 101811
06:00+21юв1264100 0.0 101811
09:00+21в1163100 0.0 101911
12:00+22юз225995 0.0 102036
15:00+22з45605 0.0 102056
18:00+22зсз4565100 0.0 101950
21:00+22сз336563 0.0 101919
27 мая, пт
пт2700:00+22ссз226163 0.0 101911
03:00+22ссз2258100 0.0 101811
06:00+21с225618 0.0 101712
09:00+21зсз11605 0.0 101711
12:00+22з55675 0.0 101863
15:00+22зсз56705 0.0 101673
18:00+22зсз556956 0.0 101563
21:00+22зсз447289 0.0 101445
28 мая, сб
сб2800:00+21всв22707 0.0 101513
03:00+21в22695 0.0 101313
06:00+21всв22665 0.0 101211
09:00+21зсз3364100 0.0 101316
12:00+22з22665 0.0 101319
15:00+22ююв226378 0.0 101142
18:00+23юз676991 0.0 1010189
21:00+22сз447224 0.0 100939